XNO56T EGGD-LPFR

Flight info

Callsign XNO56T
Flight time 2h 23m
Altitude 34000
Route EXMOR N92 DAWLY DCT BHD DCT SALCO DCT IBISU/N0439F350 DCT BALDA DCT ABUPI/N0440F370 DCT ORVED DCT UPULO DCT ALAGU
Aircraft A320/M-SDE3FGHIRWY/LB1

Departure

Time 2026-05-07 18:48
Airport Bristol Airport (EGGD)

Arrival

Time 2026-05-07 21:11
Airport Faro - Gago Coutinho International Airport (LPFR)
Time Latitude Longitude Altitude Speed Heading
2026-05-07 18:08 51.38555 -2.71018 623 ft 0 kts 356°
2026-05-07 18:37 51.38530 -2.71015 619 ft 4 kts 356°
2026-05-07 18:37 51.38503 -2.71012 626 ft 4 kts 356°
2026-05-07 18:37 51.38481 -2.71010 625 ft 4 kts
2026-05-07 18:37 51.38462 -2.71021 626 ft 4 kts 70°
2026-05-07 18:38 51.38458 -2.71060 628 ft 4 kts 86°
2026-05-07 18:38 51.38457 -2.71075 627 ft 1 kts 86°
2026-05-07 18:43 51.38458 -2.71054 625 ft 4 kts 86°
2026-05-07 18:43 51.38461 -2.70991 614 ft 8 kts 85°
2026-05-07 18:43 51.38466 -2.70889 613 ft 11 kts 85°
2026-05-07 18:43 51.38471 -2.70748 611 ft 14 kts 87°
2026-05-07 18:44 51.38477 -2.70587 609 ft 11 kts 86°
2026-05-07 18:44 51.38465 -2.70538 619 ft 0 kts 142°
2026-05-07 18:45 51.38464 -2.70536 618 ft 0 kts 142°
2026-05-07 18:45 51.38451 -2.70526 616 ft 5 kts 156°
2026-05-07 18:46 51.38405 -2.70505 610 ft 7 kts 165°
2026-05-07 18:46 51.38370 -2.70489 618 ft 3 kts 165°
2026-05-07 18:46 51.38326 -2.70502 625 ft 9 kts 227°
2026-05-07 18:46 51.38319 -2.70557 616 ft 0 kts 267°
2026-05-07 18:47 51.38317 -2.70629 609 ft 32 kts 266°
2026-05-07 18:47 51.38289 -2.71353 602 ft 96 kts 266°
2026-05-07 18:47 51.38238 -2.72659 634 ft 137 kts 267°
2026-05-07 18:48 51.38183 -2.74282 1046 ft 139 kts 268°
2026-05-07 18:48 51.38121 -2.75866 1387 ft 155 kts 263°
2026-05-07 18:48 51.38038 -2.77695 1611 ft 169 kts 264°
2026-05-07 18:48 51.37978 -2.79560 2200 ft 168 kts 264°
2026-05-07 18:49 51.37922 -2.81494 2640 ft 183 kts 264°
2026-05-07 18:49 51.37855 -2.83648 2861 ft 205 kts 264°
2026-05-07 18:49 51.37720 -2.86018 3141 ft 222 kts 252°
2026-05-07 18:49 51.36857 -2.88138 3433 ft 241 kts 221°
2026-05-07 18:50 51.35581 -2.90008 4002 ft 254 kts 220°
2026-05-07 18:50 51.34265 -2.91925 4842 ft 258 kts 221°
2026-05-07 18:50 51.32947 -2.93902 5658 ft 262 kts 222°
2026-05-07 18:50 51.31639 -2.95941 6486 ft 265 kts 223°
2026-05-07 18:51 51.30332 -2.98035 7277 ft 267 kts 224°
2026-05-07 18:51 51.29113 -3.00288 8056 ft 271 kts 237°
2026-05-07 18:51 51.28235 -3.02979 8849 ft 274 kts 242°
2026-05-07 18:51 51.27344 -3.05673 9638 ft 275 kts 234°
2026-05-07 18:52 51.25986 -3.07804 10334 ft 277 kts 211°
2026-05-07 18:52 51.24174 -3.09118 10571 ft 298 kts 201°
2026-05-07 18:52 51.22155 -3.10285 10776 ft 317 kts 200°
2026-05-07 18:52 51.20043 -3.11454 11300 ft 324 kts 199°
2026-05-07 18:53 51.17895 -3.12633 11899 ft 329 kts 199°
2026-05-07 18:53 51.15721 -3.13833 12522 ft 332 kts 200°
2026-05-07 18:53 51.13527 -3.15056 13134 ft 336 kts 200°
2026-05-07 18:53 51.11312 -3.16302 13741 ft 340 kts 200°
2026-05-07 18:54 51.09070 -3.17571 14284 ft 343 kts 200°
2026-05-07 18:54 51.06810 -3.18851 14844 ft 346 kts 200°
2026-05-07 18:54 51.04532 -3.20140 15417 ft 348 kts 200°
2026-05-07 18:54 51.02243 -3.21432 15971 ft 351 kts 200°
2026-05-07 18:55 50.99935 -3.22731 16525 ft 353 kts 200°
2026-05-07 18:55 50.97615 -3.24036 17083 ft 355 kts 200°
2026-05-07 18:55 50.95278 -3.25349 17628 ft 358 kts 200°
2026-05-07 18:55 50.92923 -3.26671 18181 ft 360 kts 200°
2026-05-07 18:56 50.90553 -3.28002 18694 ft 363 kts 200°
2026-05-07 18:56 50.88167 -3.29335 19192 ft 365 kts 200°
2026-05-07 18:56 50.85763 -3.30668 19685 ft 367 kts 199°
2026-05-07 18:56 50.83254 -3.31478 20165 ft 371 kts 188°
2026-05-07 18:57 50.80690 -3.32002 20636 ft 373 kts 188°
2026-05-07 18:57 50.78107 -3.32521 21093 ft 375 kts 188°
2026-05-07 18:57 50.75504 -3.33037 21543 ft 378 kts 188°
2026-05-07 18:57 50.72892 -3.33553 21996 ft 380 kts 188°
2026-05-07 18:58 50.70241 -3.34078 22449 ft 382 kts 188°
2026-05-07 18:58 50.67616 -3.34602 22886 ft 384 kts 188°
2026-05-07 18:58 50.64954 -3.35135 23324 ft 387 kts 188°
2026-05-07 18:58 50.62278 -3.35670 23718 ft 389 kts 188°
2026-05-07 18:59 50.59621 -3.36197 24071 ft 391 kts 188°
2026-05-07 18:59 50.56919 -3.36735 24435 ft 393 kts 188°
2026-05-07 18:59 50.54199 -3.37277 24796 ft 394 kts 188°
2026-05-07 18:59 50.52135 -3.37686 25077 ft 396 kts 188°
2026-05-07 19:00 50.49397 -3.38227 25421 ft 398 kts 188°
2026-05-07 19:00 50.46648 -3.38768 25777 ft 399 kts 188°
2026-05-07 19:00 50.43884 -3.39310 26127 ft 401 kts 188°
2026-05-07 19:00 50.41108 -3.39852 26465 ft 403 kts 188°
2026-05-07 19:01 50.38319 -3.40397 26805 ft 405 kts 188°
2026-05-07 19:01 50.35515 -3.40946 27134 ft 407 kts 188°
2026-05-07 19:01 50.32703 -3.41501 27480 ft 408 kts 188°
2026-05-07 19:01 50.29877 -3.42061 27800 ft 410 kts 188°
2026-05-07 19:02 50.27036 -3.42622 28122 ft 412 kts 188°
2026-05-07 19:02 50.24183 -3.43181 28464 ft 414 kts 188°
2026-05-07 19:02 50.21317 -3.43742 28794 ft 416 kts 188°
2026-05-07 19:02 50.18436 -3.44307 29117 ft 418 kts 188°
2026-05-07 19:03 50.15593 -3.44865 29492 ft 418 kts 188°
2026-05-07 19:03 50.09402 -3.46068 30433 ft 415 kts 188°
2026-05-07 19:03 50.06537 -3.46625 30835 ft 414 kts 188°
2026-05-07 19:04 50.03685 -3.47180 31240 ft 413 kts 188°
2026-05-07 19:04 50.00831 -3.47735 31640 ft 412 kts 188°
2026-05-07 19:04 49.97995 -3.48283 32039 ft 411 kts 188°
2026-05-07 19:04 49.95162 -3.48830 32450 ft 410 kts 188°
2026-05-07 19:05 49.92331 -3.49375 32847 ft 409 kts 188°
2026-05-07 19:05 49.89505 -3.49917 32980 ft 409 kts 188°
2026-05-07 19:05 49.86687 -3.50458 33184 ft 408 kts 188°
2026-05-07 19:06 49.81493 -3.51456 33696 ft 407 kts 188°
2026-05-07 19:06 49.75866 -3.52534 33996 ft 406 kts 188°
2026-05-07 19:06 49.73085 -3.53248 33997 ft 404 kts 195°
2026-05-07 19:07 49.67682 -3.55638 33994 ft 404 kts 197°
2026-05-07 19:07 49.62280 -3.58016 34001 ft 403 kts 197°
2026-05-07 19:08 49.56879 -3.60385 33993 ft 404 kts 197°
2026-05-07 19:08 49.51466 -3.62747 33987 ft 405 kts 197°
2026-05-07 19:09 49.46049 -3.65117 33985 ft 405 kts 197°
2026-05-07 19:09 49.40633 -3.67500 33993 ft 405 kts 197°
2026-05-07 19:10 49.35214 -3.69868 33990 ft 405 kts 197°
2026-05-07 19:10 49.29794 -3.72230 33989 ft 405 kts 197°
2026-05-07 19:11 49.24349 -3.74597 33978 ft 412 kts 197°
2026-05-07 19:11 49.18732 -3.77027 33989 ft 427 kts 197°
2026-05-07 19:12 49.12924 -3.79534 33989 ft 436 kts 197°
2026-05-07 19:12 49.10049 -3.80767 33988 ft 421 kts 197°
2026-05-07 19:12 49.07280 -3.81956 33987 ft 406 kts 197°
2026-05-07 19:13 49.04603 -3.83105 33992 ft 394 kts 197°
2026-05-07 19:13 49.01976 -3.84232 33999 ft 390 kts 197°
2026-05-07 19:13 48.99399 -3.85337 33992 ft 378 kts 197°
2026-05-07 19:13 48.96903 -3.86406 33989 ft 370 kts 197°
2026-05-07 19:14 48.91977 -3.88524 33996 ft 367 kts 197°
2026-05-07 19:14 48.87102 -3.90608 34003 ft 366 kts 197°
2026-05-07 19:15 48.82198 -3.92703 34001 ft 366 kts 197°
2026-05-07 19:15 48.77284 -3.94794 34005 ft 368 kts 198°
2026-05-07 19:16 48.72354 -3.96883 33579 ft 367 kts 198°
2026-05-07 19:16 48.69891 -3.97925 33050 ft 368 kts 197°
2026-05-07 19:16 48.67423 -3.98970 32520 ft 368 kts 197°
2026-05-07 19:17 48.64955 -4.00017 32081 ft 367 kts 197°
2026-05-07 19:17 48.62506 -4.01056 31985 ft 366 kts 197°
2026-05-07 19:17 48.57573 -4.03143 31987 ft 369 kts 197°
2026-05-07 19:18 48.52617 -4.05234 32005 ft 371 kts 197°
2026-05-07 19:18 48.47645 -4.07332 32010 ft 371 kts 197°
2026-05-07 19:19 48.42676 -4.09421 32008 ft 371 kts 197°
2026-05-07 19:19 48.37702 -4.11494 32010 ft 371 kts 197°
2026-05-07 19:20 48.32719 -4.13573 31999 ft 372 kts 197°
2026-05-07 19:20 48.27735 -4.15655 32000 ft 372 kts 197°
2026-05-07 19:21 48.22751 -4.17738 31996 ft 372 kts 197°
2026-05-07 19:21 48.17758 -4.19809 31997 ft 373 kts 197°
2026-05-07 19:22 48.12738 -4.21887 32003 ft 380 kts 198°
2026-05-07 19:22 48.07548 -4.24042 32002 ft 399 kts 197°
2026-05-07 19:23 48.02104 -4.26284 31997 ft 410 kts 198°
2026-05-07 19:23 47.96569 -4.28556 32001 ft 413 kts 198°
2026-05-07 19:24 47.91019 -4.30844 32002 ft 415 kts 198°
2026-05-07 19:24 47.85442 -4.33136 32003 ft 416 kts 198°
2026-05-07 19:25 47.79823 -4.35430 32155 ft 423 kts 198°
2026-05-07 19:25 47.76984 -4.36584 32458 ft 424 kts 198°
2026-05-07 19:25 47.74133 -4.37743 32787 ft 424 kts 198°
2026-05-07 19:26 47.71286 -4.38902 33123 ft 425 kts 199°
2026-05-07 19:26 47.68432 -4.40066 33439 ft 426 kts 199°
2026-05-07 19:26 47.65574 -4.41231 33770 ft 426 kts 199°
2026-05-07 19:26 47.62714 -4.42393 33975 ft 427 kts 199°
2026-05-07 19:27 47.56970 -4.44721 34004 ft 427 kts 199°
2026-05-07 19:27 47.51239 -4.47045 34002 ft 427 kts 199°
2026-05-07 19:28 47.45498 -4.49362 34005 ft 428 kts 199°
2026-05-07 19:28 47.39743 -4.51676 34005 ft 429 kts 199°
2026-05-07 19:29 47.34025 -4.53973 34001 ft 429 kts 199°
2026-05-07 19:29 47.28231 -4.56295 33996 ft 429 kts 199°
2026-05-07 19:30 47.22506 -4.58593 33996 ft 430 kts 199°
2026-05-07 19:30 47.16691 -4.60912 34002 ft 430 kts 199°
2026-05-07 19:31 47.10945 -4.63197 34002 ft 431 kts 199°
2026-05-07 19:31 47.05154 -4.65476 33985 ft 430 kts 199°
2026-05-07 19:32 47.02255 -4.66588 33534 ft 431 kts 198°
2026-05-07 19:32 46.99353 -4.67692 32991 ft 432 kts 198°
2026-05-07 19:32 46.96443 -4.68800 32471 ft 433 kts 198°
2026-05-07 19:32 46.93516 -4.69919 32634 ft 435 kts 198°
2026-05-07 19:33 46.90594 -4.71039 33085 ft 433 kts 198°
2026-05-07 19:33 46.87687 -4.72156 33484 ft 432 kts 198°
2026-05-07 19:33 46.84774 -4.73274 33837 ft 433 kts 199°
2026-05-07 19:33 46.81859 -4.74387 33976 ft 434 kts 198°
2026-05-07 19:34 46.76020 -4.76603 33994 ft 433 kts 198°
2026-05-07 19:34 46.70183 -4.78819 33991 ft 433 kts 198°
2026-05-07 19:35 46.64348 -4.81033 33991 ft 433 kts 198°
2026-05-07 19:35 46.58520 -4.83246 33991 ft 433 kts 198°
2026-05-07 19:36 46.52690 -4.85450 33989 ft 433 kts 199°
2026-05-07 19:36 46.46853 -4.87650 33999 ft 433 kts 199°
2026-05-07 19:37 46.41019 -4.89838 33985 ft 433 kts 199°
2026-05-07 19:37 46.35190 -4.92038 33990 ft 433 kts 199°
2026-05-07 19:38 46.29352 -4.94228 33993 ft 433 kts 199°
2026-05-07 19:38 46.23520 -4.96407 33977 ft 433 kts 199°
2026-05-07 19:39 46.17680 -4.98580 33972 ft 433 kts 199°
2026-05-07 19:39 46.12824 -5.00383 33973 ft 434 kts 199°
2026-05-07 19:40 46.05992 -5.02926 33985 ft 434 kts 199°
2026-05-07 19:40 46.00180 -5.05083 33977 ft 434 kts 199°
2026-05-07 19:41 45.94325 -5.07256 33980 ft 434 kts 199°
2026-05-07 19:41 45.88470 -5.09410 33981 ft 435 kts 199°
2026-05-07 19:42 45.82605 -5.11564 33970 ft 435 kts 199°
2026-05-07 19:42 45.76740 -5.13716 33970 ft 435 kts 199°
2026-05-07 19:43 45.70867 -5.15867 33978 ft 436 kts 199°
2026-05-07 19:43 45.64991 -5.18016 33964 ft 436 kts 199°
2026-05-07 19:44 45.60099 -5.19805 33974 ft 436 kts 199°
2026-05-07 19:44 45.54213 -5.21938 33971 ft 436 kts 199°
2026-05-07 19:45 45.48327 -5.24073 33955 ft 436 kts 199°
2026-05-07 19:45 45.42440 -5.26210 33952 ft 437 kts 199°
2026-05-07 19:46 45.36550 -5.28352 33956 ft 437 kts 199°
2026-05-07 19:46 45.30649 -5.30484 33947 ft 437 kts 199°
2026-05-07 19:47 45.24752 -5.32602 33941 ft 437 kts 199°
2026-05-07 19:47 45.18843 -5.34723 33938 ft 438 kts 199°
2026-05-07 19:48 45.12928 -5.36842 33941 ft 439 kts 199°
2026-05-07 19:48 45.07007 -5.38961 33936 ft 439 kts 200°
2026-05-07 19:49 45.01070 -5.41094 33925 ft 441 kts 200°
2026-05-07 19:49 44.95124 -5.43222 33936 ft 441 kts 200°
2026-05-07 19:50 44.89166 -5.45339 33944 ft 442 kts 200°
2026-05-07 19:50 44.83201 -5.47454 33932 ft 442 kts 200°
2026-05-07 19:51 44.77244 -5.49572 33937 ft 442 kts 200°
2026-05-07 19:51 44.71284 -5.51676 33939 ft 442 kts 200°
2026-05-07 19:52 44.65360 -5.53755 33944 ft 442 kts 200°
2026-05-07 19:52 44.59508 -5.56199 33941 ft 434 kts 210°
2026-05-07 19:53 44.53996 -5.59637 33935 ft 434 kts 210°
2026-05-07 19:53 44.48473 -5.63052 33933 ft 434 kts 210°
2026-05-07 19:54 44.42939 -5.66449 33936 ft 434 kts 210°
2026-05-07 19:54 44.37401 -5.69849 33952 ft 434 kts 210°
2026-05-07 19:55 44.31868 -5.73241 33942 ft 434 kts 210°
2026-05-07 19:55 44.26350 -5.76625 33933 ft 433 kts 210°
2026-05-07 19:56 44.20844 -5.79989 33938 ft 432 kts 210°
2026-05-07 19:56 44.15347 -5.83343 33940 ft 431 kts 210°
2026-05-07 19:57 44.09860 -5.86688 33937 ft 430 kts 210°
2026-05-07 19:57 44.04376 -5.90020 33927 ft 430 kts 210°
2026-05-07 19:58 43.98902 -5.93338 33929 ft 429 kts 210°
2026-05-07 19:58 43.93426 -5.96652 33927 ft 429 kts 210°
2026-05-07 19:59 43.87995 -5.99935 33921 ft 429 kts 210°
2026-05-07 19:59 43.82528 -6.03231 33906 ft 428 kts 210°
2026-05-07 20:00 43.77060 -6.06526 33910 ft 428 kts 210°
2026-05-07 20:00 43.71600 -6.09808 33898 ft 428 kts 210°
2026-05-07 20:01 43.66141 -6.13080 33896 ft 427 kts 210°
2026-05-07 20:01 43.60699 -6.16335 33914 ft 426 kts 210°
2026-05-07 20:02 43.55262 -6.19577 33930 ft 425 kts 210°
2026-05-07 20:02 43.49835 -6.22801 33929 ft 425 kts 210°
2026-05-07 20:03 43.44416 -6.26019 33904 ft 424 kts 210°
2026-05-07 20:03 43.39009 -6.29226 33918 ft 422 kts 210°
2026-05-07 20:04 43.33617 -6.32426 33920 ft 422 kts 210°
2026-05-07 20:04 43.28225 -6.35608 33922 ft 421 kts 210°
2026-05-07 20:05 43.22841 -6.38780 33909 ft 421 kts 210°
2026-05-07 20:05 43.17509 -6.41924 33928 ft 419 kts 210°
2026-05-07 20:06 43.12150 -6.45071 33938 ft 419 kts 210°
2026-05-07 20:06 43.06804 -6.48204 33932 ft 417 kts 210°
2026-05-07 20:07 43.01477 -6.51319 33928 ft 415 kts 210°
2026-05-07 20:07 42.96175 -6.54414 33935 ft 414 kts 210°
2026-05-07 20:08 42.90888 -6.57495 33933 ft 412 kts 210°
2026-05-07 20:08 42.85617 -6.60567 33929 ft 411 kts 210°
2026-05-07 20:09 42.80354 -6.63631 33911 ft 411 kts 210°
2026-05-07 20:10 42.72449 -6.68219 33916 ft 411 kts 210°
2026-05-07 20:10 42.67178 -6.71268 33927 ft 412 kts 210°
2026-05-07 20:11 42.61901 -6.74311 33927 ft 412 kts 210°
2026-05-07 20:11 42.56627 -6.77336 33928 ft 412 kts 210°
2026-05-07 20:12 42.51360 -6.80373 33935 ft 411 kts 210°
2026-05-07 20:12 42.46095 -6.83408 33932 ft 411 kts 210°
2026-05-07 20:13 42.40830 -6.86423 33908 ft 411 kts 209°
2026-05-07 20:13 42.35566 -6.89427 33918 ft 410 kts 209°
2026-05-07 20:14 42.30305 -6.92432 33926 ft 410 kts 209°
2026-05-07 20:14 42.25060 -6.95427 33927 ft 409 kts 208°
2026-05-07 20:15 42.19766 -6.98435 33918 ft 420 kts 208°
2026-05-07 20:15 42.14383 -7.01488 33917 ft 424 kts 208°
2026-05-07 20:16 42.08939 -7.04569 33916 ft 424 kts 208°
2026-05-07 20:16 42.03500 -7.07644 33916 ft 424 kts 208°
2026-05-07 20:17 41.98057 -7.10722 33919 ft 424 kts 208°
2026-05-07 20:17 41.92620 -7.13784 33905 ft 424 kts 208°
2026-05-07 20:18 41.87185 -7.16841 33913 ft 423 kts 208°
2026-05-07 20:18 41.81755 -7.19887 33918 ft 423 kts 208°
2026-05-07 20:19 41.76313 -7.22885 33918 ft 424 kts 204°
2026-05-07 20:19 41.70487 -7.24454 33929 ft 430 kts 193°
2026-05-07 20:20 41.65571 -7.25347 33935 ft 428 kts 193°
2026-05-07 20:20 41.58689 -7.26590 33930 ft 426 kts 193°
2026-05-07 20:21 41.52813 -7.27659 33914 ft 426 kts 193°
2026-05-07 20:21 41.46934 -7.28728 33918 ft 426 kts 193°
2026-05-07 20:22 41.41058 -7.29786 33913 ft 426 kts 193°
2026-05-07 20:22 41.35214 -7.30832 33920 ft 426 kts 193°
2026-05-07 20:23 41.29329 -7.31889 33906 ft 427 kts 193°
2026-05-07 20:23 41.23441 -7.32940 33917 ft 427 kts 193°
2026-05-07 20:24 41.17552 -7.33986 33919 ft 427 kts 193°
2026-05-07 20:24 41.11661 -7.35044 33919 ft 427 kts 193°
2026-05-07 20:25 41.05768 -7.36103 33909 ft 428 kts 193°
2026-05-07 20:25 40.99869 -7.37162 33910 ft 428 kts 193°
2026-05-07 20:26 40.93971 -7.38209 33912 ft 428 kts 192°
2026-05-07 20:26 40.88066 -7.39248 33899 ft 428 kts 193°
2026-05-07 20:27 40.82194 -7.40274 33906 ft 429 kts 193°
2026-05-07 20:27 40.76279 -7.41322 33910 ft 429 kts 193°
2026-05-07 20:28 40.70360 -7.42376 33915 ft 429 kts 193°
2026-05-07 20:28 40.64438 -7.43424 33898 ft 429 kts 193°
2026-05-07 20:29 40.58521 -7.44464 33920 ft 429 kts 193°
2026-05-07 20:29 40.52602 -7.45501 33931 ft 429 kts 193°
2026-05-07 20:30 40.46691 -7.46538 33932 ft 429 kts 193°
2026-05-07 20:30 40.40778 -7.47561 33936 ft 428 kts 193°
2026-05-07 20:31 40.34868 -7.48587 33934 ft 428 kts 193°
2026-05-07 20:31 40.28965 -7.49622 33931 ft 428 kts 193°
2026-05-07 20:32 40.23065 -7.50657 33914 ft 428 kts 193°
2026-05-07 20:32 40.18167 -7.51507 33925 ft 427 kts 193°
2026-05-07 20:33 40.12280 -7.52521 33929 ft 426 kts 193°
2026-05-07 20:33 40.06406 -7.53531 33929 ft 426 kts 193°
2026-05-07 20:34 39.99582 -7.54709 33916 ft 425 kts 193°
2026-05-07 20:34 39.94674 -7.55562 33932 ft 424 kts 193°
2026-05-07 20:35 39.88826 -7.56569 33934 ft 423 kts 193°
2026-05-07 20:35 39.82986 -7.57578 33933 ft 423 kts 193°
2026-05-07 20:36 39.77149 -7.58582 33917 ft 423 kts 192°
2026-05-07 20:36 39.71328 -7.59581 33935 ft 422 kts 192°
2026-05-07 20:37 39.65551 -7.60567 33949 ft 421 kts 192°
2026-05-07 20:37 39.59752 -7.61556 33948 ft 420 kts 192°
2026-05-07 20:38 39.53965 -7.62546 33933 ft 419 kts 192°
2026-05-07 20:38 39.48184 -7.63519 33942 ft 418 kts 192°
2026-05-07 20:39 39.42417 -7.64497 33940 ft 418 kts 192°
2026-05-07 20:39 39.36624 -7.65201 33948 ft 422 kts 185°
2026-05-07 20:40 39.30750 -7.65201 33930 ft 422 kts 185°
2026-05-07 20:40 39.24891 -7.65201 33937 ft 421 kts 185°
2026-05-07 20:41 39.19034 -7.65199 33942 ft 420 kts 185°
2026-05-07 20:41 39.13183 -7.65193 33946 ft 420 kts 185°
2026-05-07 20:41 39.10297 -7.65192 33932 ft 409 kts 185°
2026-05-07 20:42 39.07473 -7.65188 33936 ft 403 kts 186°
2026-05-07 20:42 39.01890 -7.65156 33938 ft 401 kts 185°
2026-05-07 20:43 38.96316 -7.64939 33934 ft 401 kts 184°
2026-05-07 20:43 38.90736 -7.64663 33940 ft 401 kts 184°
2026-05-07 20:44 38.85159 -7.64417 33936 ft 401 kts 184°
2026-05-07 20:44 38.79587 -7.64191 33948 ft 400 kts 185°
2026-05-07 20:45 38.74090 -7.63980 33659 ft 388 kts 185°
2026-05-07 20:45 38.71407 -7.63876 33235 ft 384 kts 184°
2026-05-07 20:45 38.68748 -7.63773 32764 ft 381 kts 184°
2026-05-07 20:45 38.66142 -7.63672 32298 ft 379 kts 184°
2026-05-07 20:46 38.63513 -7.63569 31799 ft 376 kts 184°
2026-05-07 20:46 38.60908 -7.63467 31367 ft 374 kts 184°
2026-05-07 20:46 38.58315 -7.63369 30930 ft 371 kts 183°
2026-05-07 20:46 38.55737 -7.63272 30492 ft 369 kts 183°
2026-05-07 20:47 38.53175 -7.63173 30057 ft 368 kts 182°
2026-05-07 20:47 38.50623 -7.63075 29573 ft 366 kts 182°
2026-05-07 20:47 38.48086 -7.62977 29099 ft 364 kts 182°
2026-05-07 20:47 38.45563 -7.62876 28648 ft 362 kts 182°
2026-05-07 20:48 38.43055 -7.62775 28214 ft 359 kts 182°
2026-05-07 20:48 38.40564 -7.62674 27792 ft 357 kts 182°
2026-05-07 20:48 38.38085 -7.62578 27369 ft 356 kts 182°
2026-05-07 20:48 38.35618 -7.62485 26941 ft 354 kts 182°
2026-05-07 20:49 38.33166 -7.62391 26528 ft 352 kts 182°
2026-05-07 20:49 38.30727 -7.62298 26108 ft 350 kts 182°
2026-05-07 20:49 38.28294 -7.62204 25700 ft 348 kts 182°
2026-05-07 20:49 38.25877 -7.62106 25295 ft 347 kts 182°
2026-05-07 20:50 38.23472 -7.62008 24875 ft 345 kts 182°
2026-05-07 20:50 38.21076 -7.61914 24472 ft 344 kts 182°
2026-05-07 20:50 38.18690 -7.61822 24072 ft 342 kts 182°
2026-05-07 20:50 38.16319 -7.61731 23677 ft 340 kts 182°
2026-05-07 20:51 38.13956 -7.61643 23234 ft 339 kts 182°
2026-05-07 20:51 38.11604 -7.61557 22786 ft 337 kts 182°
2026-05-07 20:51 38.09271 -7.61469 22362 ft 334 kts 182°
2026-05-07 20:51 38.06960 -7.61404 21958 ft 331 kts 183°
2026-05-07 20:52 38.04666 -7.61389 21561 ft 328 kts 183°
2026-05-07 20:52 38.02390 -7.61398 21166 ft 326 kts 184°
2026-05-07 20:52 38.00131 -7.61412 20769 ft 323 kts 184°
2026-05-07 20:52 37.97893 -7.61428 20382 ft 321 kts 184°
2026-05-07 20:53 37.95670 -7.61440 19997 ft 318 kts 184°
2026-05-07 20:53 37.93466 -7.61449 19629 ft 316 kts 184°
2026-05-07 20:53 37.91283 -7.61452 19308 ft 312 kts 184°
2026-05-07 20:53 37.89122 -7.61452 18956 ft 310 kts 184°
2026-05-07 20:54 37.86970 -7.61454 18577 ft 308 kts 184°
2026-05-07 20:54 37.84859 -7.61453 18213 ft 307 kts 184°
2026-05-07 20:54 37.82733 -7.61452 17784 ft 305 kts 183°
2026-05-07 20:54 37.80611 -7.61451 17358 ft 304 kts 183°
2026-05-07 20:55 37.78504 -7.61452 16948 ft 302 kts 183°
2026-05-07 20:55 37.76406 -7.61458 16531 ft 301 kts 183°
2026-05-07 20:55 37.74316 -7.61464 16124 ft 300 kts 182°
2026-05-07 20:55 37.72230 -7.61467 15721 ft 299 kts 182°
2026-05-07 20:56 37.70149 -7.61468 15311 ft 299 kts 182°
2026-05-07 20:56 37.68074 -7.61468 14919 ft 298 kts 181°
2026-05-07 20:56 37.66005 -7.61465 14532 ft 297 kts 181°
2026-05-07 20:56 37.63935 -7.61465 14148 ft 297 kts 181°
2026-05-07 20:57 37.61873 -7.61468 13772 ft 296 kts 181°
2026-05-07 20:57 37.59810 -7.61470 13353 ft 296 kts 181°
2026-05-07 20:57 37.57751 -7.61473 12928 ft 296 kts 181°
2026-05-07 20:57 37.55693 -7.61472 12508 ft 295 kts 180°
2026-05-07 20:58 37.53637 -7.61468 12099 ft 295 kts 180°
2026-05-07 20:58 37.51583 -7.61466 11694 ft 295 kts 180°
2026-05-07 20:58 37.49533 -7.61469 11297 ft 295 kts 180°
2026-05-07 20:58 37.47484 -7.61475 10901 ft 294 kts 180°
2026-05-07 20:59 37.45438 -7.61478 10501 ft 294 kts 180°
2026-05-07 20:59 37.43404 -7.61481 10114 ft 288 kts 180°
2026-05-07 20:59 37.41436 -7.61483 9717 ft 278 kts 180°
2026-05-07 20:59 37.39522 -7.61484 9293 ft 274 kts 180°
2026-05-07 21:00 37.37621 -7.61481 8873 ft 272 kts 180°
2026-05-07 21:00 37.35736 -7.61478 8530 ft 270 kts 179°
2026-05-07 21:00 37.33858 -7.61477 8271 ft 270 kts 179°
2026-05-07 21:00 37.31978 -7.61479 8031 ft 269 kts 179°
2026-05-07 21:01 37.30114 -7.61481 7779 ft 267 kts 178°
2026-05-07 21:01 37.28260 -7.61480 7528 ft 266 kts 178°
2026-05-07 21:01 37.26403 -7.61477 7278 ft 266 kts 178°
2026-05-07 21:01 37.24581 -7.61476 7035 ft 265 kts 178°
2026-05-07 21:02 37.22737 -7.61477 6794 ft 265 kts 177°
2026-05-07 21:02 37.20891 -7.61478 6552 ft 265 kts 177°
2026-05-07 21:02 37.19045 -7.61478 6310 ft 265 kts 176°
2026-05-07 21:02 37.17203 -7.61478 6086 ft 264 kts 176°
2026-05-07 21:03 37.15362 -7.61479 5955 ft 265 kts 177°
2026-05-07 21:03 37.13525 -7.61481 5820 ft 261 kts 177°
2026-05-07 21:03 37.11740 -7.61482 5695 ft 252 kts 177°
2026-05-07 21:03 37.10003 -7.61485 5462 ft 249 kts 177°
2026-05-07 21:04 37.08279 -7.61658 5195 ft 249 kts 190°
2026-05-07 21:04 37.06649 -7.62365 4944 ft 247 kts 202°
2026-05-07 21:04 37.05088 -7.63232 4694 ft 244 kts 202°
2026-05-07 21:04 37.03550 -7.64085 4486 ft 239 kts 203°
2026-05-07 21:05 37.02046 -7.64915 4279 ft 234 kts 203°
2026-05-07 21:05 37.00565 -7.65731 4073 ft 231 kts 204°
2026-05-07 21:05 36.99150 -7.66628 3867 ft 225 kts 218°
2026-05-07 21:05 36.98140 -7.68064 3655 ft 218 kts 244°
2026-05-07 21:06 36.97718 -7.69830 3460 ft 209 kts 268°
2026-05-07 21:06 36.97855 -7.71610 3261 ft 204 kts 282°
2026-05-07 21:06 36.98107 -7.73330 3088 ft 198 kts 283°
2026-05-07 21:06 36.98352 -7.75012 3004 ft 199 kts 282°
2026-05-07 21:07 36.98597 -7.76707 2984 ft 196 kts 283°
2026-05-07 21:07 36.98834 -7.78359 2811 ft 191 kts 282°
2026-05-07 21:07 36.99064 -7.79958 2589 ft 182 kts 283°
2026-05-07 21:07 36.99278 -7.81455 2349 ft 168 kts 283°
2026-05-07 21:08 36.99479 -7.82856 2122 ft 161 kts 284°
2026-05-07 21:08 36.99673 -7.84206 1906 ft 158 kts 285°
2026-05-07 21:08 36.99867 -7.85554 1703 ft 156 kts 285°
2026-05-07 21:08 37.00058 -7.86889 1487 ft 156 kts 284°
2026-05-07 21:09 37.00240 -7.88166 1295 ft 143 kts 284°
2026-05-07 21:09 37.00412 -7.89372 1099 ft 137 kts 283°
2026-05-07 21:09 37.00578 -7.90530 907 ft 133 kts 282°
2026-05-07 21:09 37.00739 -7.91658 735 ft 131 kts 281°
2026-05-07 21:10 37.00901 -7.92787 557 ft 133 kts 281°
2026-05-07 21:10 37.01063 -7.93921 393 ft 132 kts 283°
2026-05-07 21:10 37.01222 -7.95043 213 ft 131 kts 282°
2026-05-07 21:10 37.01380 -7.96153 42 ft 132 kts 281°
2026-05-07 21:11 37.01519 -7.97101 20 ft 73 kts 280°
2026-05-07 21:11 37.01578 -7.97519 19 ft 42 kts 279°
2026-05-07 21:11 37.01680 -7.97848 21 ft 13 kts 12°
2026-05-07 21:12 37.01740 -7.97769 20 ft 7 kts 65°
2026-05-07 21:12 37.01744 -7.97757 20 ft 2 kts 66°
2026-05-07 21:12 37.01752 -7.97735 21 ft 4 kts 66°
2026-05-07 21:12 37.01765 -7.97695 20 ft 6 kts 69°
2026-05-07 21:13 37.01775 -7.97631 20 ft 10 kts 88°
2026-05-07 21:13 37.01763 -7.97534 20 ft 12 kts 101°
2026-05-07 21:13 37.01745 -7.97420 20 ft 14 kts 101°
2026-05-07 21:13 37.01728 -7.97289 22 ft 16 kts 100°
2026-05-07 21:14 37.01708 -7.97149 20 ft 17 kts 100°
2026-05-07 21:14 37.01689 -7.97021 20 ft 11 kts 100°
2026-05-07 21:14 37.01681 -7.96945 20 ft 7 kts 85°
2026-05-07 21:14 37.01723 -7.96902 20 ft 9 kts 17°
2026-05-07 21:15 37.01791 -7.96885 20 ft 9 kts 13°
2026-05-07 21:15 37.01823 -7.96816 20 ft 9 kts 91°
2026-05-07 21:15 37.01845 -7.96782 20 ft 6 kts 12°
2026-05-07 21:15 37.01880 -7.96775 20 ft 6 kts
2026-05-07 21:16 37.01907 -7.96770 20 ft 0 kts